カタログに戻る

STARLINK-37708

運用中通信VLEO
NORAD 69469·PAYLOAD·🇺🇸 United States

打ち上げ Jun 8, 2026 から Cape Canaveral Space Force Station

Loading…

次のパス (今後24時間)

TLE

最新Source: CelesTrak SupGP

元期: Sep 14, 2026, 23:33 UTC

1 69469C 26127AC  26257.98173611 -.00045368  00000+0 -13401-2 0  2575
2 69469  53.1574 191.5800 0001264  93.3697 274.8210 15.34421307    10

AllMySatでSTARLINK-37708をリアルタイム追跡

Download on the App Store